This is the latest recevied weather packets stored in our database for station/object KC9GSD. If no packets are shown the sender has not sent any weather packets the latest 10 day(s).
| Time | Temp. | Humidity | Pressure | Rain* | Wind** | Luminosity | Snow |
|---|---|---|---|---|---|---|---|
| 1777895523 | 10° C | 83% | 1017.1 hPa | 0 mm | - | 42 W/m² | - |
| 1777895220 | 9.44° C | 83% | 1017.2 hPa | 0 mm | - | 40 W/m² | - |
| 1777894917 | 9.44° C | 83% | 1017.1 hPa | 0 mm | - | 33 W/m² | - |
| 1777894615 | 9.44° C | 82% | 1016.9 hPa | 0 mm | - | 26 W/m² | - |
| 1777894312 | 8.89° C | 82% | 1016.8 hPa | 0 mm | - | 20 W/m² | - |
| 1777894009 | 8.89° C | 83% | 1016.6 hPa | 0 mm | - | 17 W/m² | - |
| 1777893705 | 8.89° C | 84% | 1016.5 hPa | 0 mm | - | 15 W/m² | - |
| 1777893401 | 8.89° C | 86% | 1016.5 hPa | 0 mm | - | 13 W/m² | - |
| 1777893097 | 8.89° C | 86% | 1016.4 hPa | 0 mm | - | 11 W/m² | - |
| 1777892795 | 8.89° C | 84% | 1016.7 hPa | 0 mm | - | 8 W/m² | - |
| 1777892491 | 8.89° C | 83% | 1016.6 hPa | 0 mm | - | 6 W/m² | - |
| 1777892187 | 8.89° C | 82% | 1016.6 hPa | 0 mm | - | 3 W/m² | - |
| 1777891884 | 8.89° C | 82% | 1016.3 hPa | 0 mm | - | 2 W/m² | - |
| 1777891581 | 8.33° C | 83% | 1016.6 hPa | 0 mm | - | 1 W/m² | - |
| 1777891278 | 8.33° C | 83% | 1016.5 hPa | 0 mm | - | 0 W/m² | - |
| 1777890978 | 8.33° C | 84% | 1016.5 hPa | 0 mm | - | 0 W/m² | - |
| 1777890673 | 8.33° C | 84% | 1016.5 hPa | 0 mm | - | 0 W/m² | - |
| 1777890368 | 8.33° C | 86% | 1016.6 hPa | 0 mm | - | 0 W/m² | - |
| 1777890064 | 8.33° C | 85% | 1016.4 hPa | 0 mm | - | 0 W/m² | - |
| 1777889762 | 8.33° C | 85% | 1016.3 hPa | 0 mm | - | 0 W/m² | - |
| 1777889460 | 8.33° C | 85% | 1016.4 hPa | 0 mm | - | 0 W/m² | - |
| 1777889157 | 8.33° C | 84% | 1016.4 hPa | 0 mm | - | 0 W/m² | - |
| 1777888855 | 8.33° C | 84% | 1016.4 hPa | 0 mm | - | 0 W/m² | - |
| 1777888551 | 8.33° C | 88% | 1016.4 hPa | 0 mm | - | 0 W/m² | - |
| 1777888247 | 8.33° C | 85% | 1016.4 hPa | 0 mm | - | 0 W/m² | - |
* Rain latest hour (hover to see other rain measurements)
** Current wind speed in m/s (hover to see current wind gust speed)